Skip Page Navigation
NASA JPL Caltech
NASA Logo - Jet Propulsion Laboratory + View the NASA Portal
+ Center for Near-Earth Object Studies
JPL Home Earth Solar System Stars & Galaxies Technology
JPL Solar System Dynamics
BODIES ORBITS EPHEMERIDES TOOLS PHYSICAL DATA DISCOVERY FAQ SITE MAP
IMPORTANT: The SSD Announcement email list is now available. Major changes are coming in the near future, including possible hostname and/or URL changes. To be notified of such changes, subscribe to this email list.

Please visit this page for more details.


JPL Small-Body Database Browser
Search: [ help ]  
295484 (2008 QX47)
Classification: Main-belt Asteroid          SPK-ID: 2295484
Ephemeris | Orbit Diagram | Orbital Elements | Mission Design | Physical Parameters | Discovery Circumstances ]

[ show orbit diagram ]
Orbital Elements at Epoch 2458600.5 (2019-Apr-27.0) TDB
Reference: JPL 11 (heliocentric ecliptic J2000)
 Element Value Uncertainty (1-sigma)   Units 
e .1485339492400601 9.96e-08  
a 2.563954292736508 3.2426e-08 au
q 2.183120035965349 2.6293e-07 au
i 5.520531088504085 1.1834e-05 deg
node 134.7550384346008 6.0071e-05 deg
peri 163.8394217393001 6.7611e-05 deg
M 250.4284556050704 2.714e-05 deg
tp 2459056.914178516175
(2020-Jul-26.41417852)
0.0001137 TDB
period 1499.559992269549
4.11
2.8447e-05
7.788e-08
d
yr
n .2400704218943241 4.5542e-09 deg/d
Q 2.944788549507666 3.7242e-08 au
  Orbit Determination Parameters
   # obs. used (total)      153  
   data-arc span      5843 days (16.00 yr)  
   first obs. used      2003-04-04  
   last obs. used      2019-04-03  
   planetary ephem.      DE431  
   SB-pert. ephem.      SB431-N16  
   condition code      0  
   norm. resid. RMS      .60258  
   source      ORB  
   producer      Otto Matic  
   solution date      2019-Jul-14 12:57:34  

Additional Information
 Earth MOID = 1.16735 au 
 Jupiter MOID = 2.26481 au 
 T_jup = 3.411 
[ show covariance matrix ]

Ephemeris | Orbit Diagram | Orbital Elements | Mission Design | Physical Parameters | Discovery Circumstances ]

Physical Parameter Table
Parameter Symbol Value Units Sigma Reference Notes
absolute magnitude H 16.6   n/a MPO433905  

295484 (2008 QX47)          Discovered 2008-Aug-23 by LINEAR at Socorro
Reference: 20110912/Numbers.arcLast Updated: 2011-09-14

Alternate Designations
 2008 QX47 = 2005 YR205 
Ephemeris | Orbit Diagram | Orbital Elements | Mission Design | Physical Parameters | Discovery Circumstances ]
ABOUT SSD CREDITS/AWARDS PRIVACY/COPYRIGHT GLOSSARY LINKS
FirstGov
(server date/time)  
NASA Home Page
Site Manager:   Ryan S. Park
Webmaster  Alan B. Chamberlin